{"data":{"norad_id":58376,"epoch":"2026-09-20T10:58:03.616320Z","epoch_age_seconds":147311,"freshness":"FRESH","line1":"1 58376U 23178C   26263.45698630  .00001072  00000+0  42850-4 0  9992","line2":"2 58376  53.1566 171.9752 0000345 122.6732 237.4304 15.34390631159771","mean_motion":15.34390631,"eccentricity":3.45e-5,"inclination_deg":53.1566,"raan_deg":171.9752,"arg_perigee_deg":122.6732,"mean_anomaly_deg":237.4304,"bstar":4.285e-5,"rev_number":15977,"period_min":93.848331116407,"perigee_km":462.49507704222,"apogee_km":462.96709694023,"semimajor_km":6840.8680869912,"source":"CELESTRAK","updated_at":"2026-09-21T09:00:33.865015Z"}}